TimeEDT,TemperatureF,Dew PointF,Humidity,Sea Level PressureIn,VisibilityMPH,Wind Direction,Wind SpeedMPH,Gust SpeedMPH,PrecipitationIn,Events,Conditions,WindDirDegrees,DateUTC
12:15 AM,60.8,60.8,100,29.97,10.0,West,3.5,-,N/A,,Clear,280,2013-10-18 04:15:00
12:35 AM,58.8,58.8,100,29.97,0.8,Calm,Calm,-,N/A,,Mist,0,2013-10-18 04:35:00
12:55 AM,57.4,57.4,100,29.97,0.2,Calm,Calm,-,N/A,Fog,Fog,0,2013-10-18 04:55:00
1:15 AM,57.4,57.4,100,29.97,0.2,Calm,Calm,-,N/A,Fog,Fog,0,2013-10-18 05:15:00
1:35 AM,58.6,58.6,100,29.98,0.2,Calm,Calm,-,N/A,Fog,Fog,0,2013-10-18 05:35:00
1:55 AM,54.7,54.7,100,29.99,2.5,Calm,Calm,-,N/A,,Scattered Clouds,0,2013-10-18 05:55:00
2:15 AM,56.1,56.1,100,29.99,10.0,North,3.5,-,N/A,,Clear,360,2013-10-18 06:15:00
2:35 AM,54.5,54.3,99,29.99,10.0,Calm,Calm,-,N/A,,Clear,0,2013-10-18 06:35:00
2:55 AM,55.0,53.8,96,29.99,10.0,North,3.5,-,N/A,,Clear,360,2013-10-18 06:55:00
3:15 AM,55.0,52.0,89,29.99,10.0,NNW,4.6,-,N/A,,Clear,340,2013-10-18 07:15:00
3:35 AM,53.2,51.3,93,29.99,10.0,Calm,Calm,-,N/A,,Clear,0,2013-10-18 07:35:00
3:55 AM,50.9,50.5,99,29.99,10.0,Calm,Calm,-,N/A,,Clear,0,2013-10-18 07:55:00
4:15 AM,49.6,49.6,100,29.99,10.0,North,3.5,-,N/A,,Clear,10,2013-10-18 08:15:00
4:35 AM,50.0,50.0,100,29.99,10.0,North,3.5,-,N/A,,Clear,350,2013-10-18 08:35:00
4:55 AM,51.8,49.5,92,30.00,10.0,NNW,3.5,-,N/A,,Clear,340,2013-10-18 08:55:00
5:15 AM,47.7,47.3,99,30.00,7.0,Calm,Calm,-,N/A,,Clear,0,2013-10-18 09:15:00
5:35 AM,46.8,46.8,100,30.00,7.0,Calm,Calm,-,N/A,,Clear,0,2013-10-18 09:35:00
5:55 AM,46.4,46.4,100,30.01,7.0,Calm,Calm,-,N/A,,Clear,0,2013-10-18 09:55:00
6:15 AM,45.9,45.9,100,30.01,7.0,Calm,Calm,-,N/A,,Clear,0,2013-10-18 10:15:00
6:35 AM,45.3,45.3,100,30.02,7.0,Calm,Calm,-,N/A,,Clear,0,2013-10-18 10:35:00
6:55 AM,44.8,44.8,100,30.02,7.0,Calm,Calm,-,N/A,,Clear,0,2013-10-18 10:55:00
7:15 AM,43.9,43.9,100,30.03,7.0,Calm,Calm,-,N/A,,Clear,0,2013-10-18 11:15:00
7:35 AM,43.3,43.3,100,30.04,0.5,Calm,Calm,-,N/A,Fog,Fog,0,2013-10-18 11:35:00
7:55 AM,43.7,43.7,100,30.05,0.2,Calm,Calm,-,N/A,Fog,Fog,0,2013-10-18 11:55:00
8:15 AM,44.6,44.6,100,30.05,0.5,Calm,Calm,-,N/A,Fog,Fog,0,2013-10-18 12:15:00
8:35 AM,46.6,46.6,100,30.07,0.8,Calm,Calm,-,N/A,,Mostly Cloudy,0,2013-10-18 12:35:00
8:55 AM,50.5,50.5,100,30.08,4.0,Calm,Calm,-,N/A,,Scattered Clouds,0,2013-10-18 12:55:00
9:15 AM,52.5,52.5,100,30.08,10.0,Calm,Calm,-,N/A,,Mostly Cloudy,0,2013-10-18 13:15:00
9:35 AM,54.0,53.4,98,30.09,10.0,Calm,Calm,-,N/A,,Mostly Cloudy,0,2013-10-18 13:35:00
9:55 AM,55.2,52.0,89,30.10,10.0,Calm,Calm,-,N/A,,Mostly Cloudy,0,2013-10-18 13:55:00
10:15 AM,57.4,52.9,85,30.10,10.0,Calm,Calm,-,N/A,,Scattered Clouds,0,2013-10-18 14:15:00
10:35 AM,57.6,50.7,78,30.10,10.0,Calm,Calm,-,N/A,,Clear,0,2013-10-18 14:35:00
10:55 AM,59.9,50.4,71,30.10,10.0,Calm,Calm,-,N/A,,Scattered Clouds,0,2013-10-18 14:55:00
11:15 AM,59.5,49.5,69,30.10,10.0,Calm,Calm,-,N/A,,Mostly Cloudy,0,2013-10-18 15:15:00
11:28 AM,60.8,50.0,68,30.10,10.0,West,3.5,-,N/A,,Overcast,260,2013-10-18 15:28:00
11:35 AM,61.3,50.2,67,30.10,10.0,Calm,Calm,-,N/A,,Overcast,0,2013-10-18 15:35:00
11:48 AM,62.6,50.0,63,30.10,10.0,ESE,3.5,-,N/A,,Overcast,120,2013-10-18 15:48:00
11:55 AM,61.9,49.3,63,30.09,10.0,East,3.5,-,N/A,,Overcast,90,2013-10-18 15:55:00
12:08 PM,64.4,50.0,59,30.09,10.0,South,3.5,-,N/A,,Overcast,190,2013-10-18 16:08:00
12:15 PM,62.8,50.4,64,30.09,10.0,Calm,Calm,-,N/A,,Overcast,0,2013-10-18 16:15:00
12:28 PM,62.6,50.0,63,30.08,10.0,Calm,Calm,-,N/A,,Overcast,0,2013-10-18 16:28:00
12:35 PM,64.8,49.6,58,30.08,10.0,Calm,Calm,-,N/A,,Mostly Cloudy,0,2013-10-18 16:35:00
12:49 PM,62.6,48.2,59,30.07,10.0,Calm,Calm,-,N/A,,Overcast,0,2013-10-18 16:49:00
12:55 PM,64.8,47.8,54,30.07,10.0,Calm,Calm,-,N/A,,Overcast,0,2013-10-18 16:55:00
1:08 PM,64.4,46.4,52,30.06,10.0,Calm,Calm,-,N/A,,Scattered Clouds,0,2013-10-18 17:08:00
1:15 PM,64.6,47.5,54,30.06,10.0,Calm,Calm,-,N/A,,Scattered Clouds,0,2013-10-18 17:15:00
1:29 PM,66.2,48.2,52,30.05,10.0,Calm,Calm,-,N/A,,Mostly Cloudy,0,2013-10-18 17:29:00
1:35 PM,66.9,48.2,51,30.05,10.0,Calm,Calm,-,N/A,,Mostly Cloudy,0,2013-10-18 17:35:00
1:55 PM,67.8,50.5,54,30.04,10.0,Calm,Calm,-,N/A,,Mostly Cloudy,0,2013-10-18 17:55:00
2:08 PM,68.0,51.8,56,30.04,10.0,Calm,Calm,-,N/A,,Scattered Clouds,0,2013-10-18 18:08:00
2:15 PM,67.8,50.9,55,30.04,10.0,South,3.5,-,N/A,,Scattered Clouds,180,2013-10-18 18:15:00
2:28 PM,68.0,51.8,56,30.03,10.0,SE,3.5,-,N/A,,Scattered Clouds,140,2013-10-18 18:28:00
2:35 PM,68.2,51.3,55,30.03,10.0,ESE,3.5,-,N/A,,Scattered Clouds,110,2013-10-18 18:35:00
2:41 PM,68.0,51.8,56,30.03,10.0,SSE,3.5,-,N/A,,Scattered Clouds,160,2013-10-18 18:41:00
2:55 PM,68.0,51.8,56,30.02,10.0,Calm,Calm,-,N/A,,Clear,0,2013-10-18 18:55:00
3:15 PM,68.4,52.7,57,30.02,10.0,SSE,4.6,-,N/A,,Clear,160,2013-10-18 19:15:00
3:35 PM,69.1,54.0,58,30.01,10.0,Calm,Calm,-,N/A,,Clear,0,2013-10-18 19:35:00
3:55 PM,68.2,53.6,60,30.01,10.0,SSE,4.6,-,N/A,,Clear,150,2013-10-18 19:55:00
4:15 PM,67.5,53.2,60,30.01,10.0,Calm,Calm,-,N/A,,Clear,0,2013-10-18 20:15:00
4:35 PM,69.3,53.6,57,30.01,10.0,Calm,Calm,-,N/A,,Clear,0,2013-10-18 20:35:00
4:55 PM,68.9,54.5,60,30.01,10.0,ESE,5.8,-,N/A,,Clear,120,2013-10-18 20:55:00
5:15 PM,67.3,54.5,63,30.01,10.0,Calm,Calm,-,N/A,,Clear,0,2013-10-18 21:15:00
5:35 PM,66.2,54.3,65,30.01,10.0,SE,3.5,-,N/A,,Clear,130,2013-10-18 21:35:00
5:55 PM,65.3,55.6,71,30.01,10.0,Calm,Calm,-,N/A,,Clear,0,2013-10-18 21:55:00
6:15 PM,64.4,55.6,73,30.02,10.0,Calm,Calm,-,N/A,,Clear,0,2013-10-18 22:15:00
6:35 PM,62.6,55.9,79,30.02,10.0,Calm,Calm,-,N/A,,Clear,0,2013-10-18 22:35:00
6:55 PM,61.7,55.8,81,30.02,10.0,Calm,Calm,-,N/A,,Scattered Clouds,0,2013-10-18 22:55:00
7:15 PM,60.8,55.4,82,30.02,10.0,Calm,Calm,-,N/A,,Mostly Cloudy,0,2013-10-18 23:15:00
7:35 PM,60.8,55.4,82,30.02,10.0,Calm,Calm,-,N/A,,Overcast,0,2013-10-18 23:35:00
7:55 PM,61.0,55.4,82,30.03,10.0,Calm,Calm,-,N/A,,Overcast,0,2013-10-18 23:55:00
8:15 PM,61.0,55.6,82,30.03,10.0,Calm,Calm,-,N/A,,Overcast,0,2013-10-19 00:15:00
8:35 PM,61.0,55.4,82,30.04,10.0,Calm,Calm,-,N/A,,Overcast,0,2013-10-19 00:35:00
8:55 PM,60.6,55.4,83,30.03,10.0,Calm,Calm,-,N/A,,Overcast,0,2013-10-19 00:55:00
9:15 PM,60.1,55.8,86,30.04,10.0,Calm,Calm,-,N/A,,Overcast,0,2013-10-19 01:15:00
9:35 PM,59.9,55.4,85,30.04,10.0,Calm,Calm,-,N/A,,Overcast,0,2013-10-19 01:35:00
9:55 PM,59.0,55.4,88,30.04,10.0,Calm,Calm,-,N/A,,Mostly Cloudy,0,2013-10-19 01:55:00
10:15 PM,57.7,55.4,92,30.05,10.0,Calm,Calm,-,N/A,,Mostly Cloudy,0,2013-10-19 02:15:00
10:35 PM,57.2,55.6,94,30.04,10.0,Calm,Calm,-,N/A,,Mostly Cloudy,0,2013-10-19 02:35:00
10:55 PM,57.9,55.2,91,30.04,10.0,Calm,Calm,-,N/A,,Mostly Cloudy,0,2013-10-19 02:55:00
11:15 PM,57.4,54.7,91,30.05,10.0,East,3.5,-,N/A,,Scattered Clouds,100,2013-10-19 03:15:00
11:35 PM,56.7,54.5,92,30.04,10.0,Calm,Calm,-,N/A,,Clear,0,2013-10-19 03:35:00
11:55 PM,56.7,54.7,93,30.03,10.0,Calm,Calm,-,N/A,,Clear,0,2013-10-19 03:55:00